Location: ??? ?????
(30.6482°N, 60.5850°E)
Time: 18:45:18
(UTC+00:00)

Cosmos 1703 - Pass Details

Date: 09 April 2020
Orbit: 523 x 541 km, 82.5° (Epoch: 06 June)

Event Time Altitude Azimuth Distance (km) Brightness Sun altitude
Rises 15:51:56 0° 349° (N) 2,700 7.3 -19.4°
Reaches altitude 10° 15:54:07 10° 346° (NNW) 1,806 6.4 -19.9°
Maximum altitude 15:58:02 61° 266° (W) 616 3.7 -20.6°
Enters shadow 16:00:26 22° 192° (SSW) 1,208 4.9 -21.1°
